Skip Page Navigation
NASA JPL Caltech
NASA Logo - Jet Propulsion Laboratory + View the NASA Portal
+ Center for Near-Earth Object Studies
JPL Home Earth Solar System Stars & Galaxies Technology
JPL Solar System Dynamics
BODIES ORBITS EPHEMERIDES TOOLS PHYSICAL DATA DISCOVERY FAQ SITE MAP
IMPORTANT: The SSD Announcement email list is now available. Major changes are coming in the near future, including possible hostname and/or URL changes. To be notified of such changes, subscribe to this email list.

Please visit this page for more details.


JPL Small-Body Database Browser
Search: [ help ]  
351201 (2004 FR61)
Classification: Main-belt Asteroid          SPK-ID: 2351201
Ephemeris | Orbit Diagram | Orbital Elements | Mission Design | Physical Parameters | Discovery Circumstances | Close-Approach Data ]

[ show orbit diagram ]
Orbital Elements at Epoch 2458600.5 (2019-Apr-27.0) TDB
Reference: JPL 15 (heliocentric ecliptic J2000)
 Element Value Uncertainty (1-sigma)   Units 
e .2678978186230526 3.878e-08  
a 2.791166630733756 2.5809e-08 au
q 2.043419178946727 1.1186e-07 au
i 6.921071274418091 7.4959e-06 deg
node 166.4283155947286 3.822e-05 deg
peri 81.20685979150252 4.2192e-05 deg
M 43.04019900537336 1.5788e-05 deg
tp 2458396.866679362751
(2018-Oct-05.36667936)
7.3164e-05 TDB
period 1703.244806564614
4.66
2.3624e-05
6.468e-08
d
yr
n .2113612785505024 2.9316e-09 deg/d
Q 3.538914082520784 3.2724e-08 au
  Orbit Determination Parameters
   # obs. used (total)      183  
   data-arc span      5676 days (15.54 yr)  
   first obs. used      2004-03-19  
   last obs. used      2019-10-03  
   planetary ephem.      DE431  
   SB-pert. ephem.      SB431-N16  
   condition code      0  
   norm. resid. RMS      .5598  
   source      ORB  
   producer      Otto Matic  
   solution date      2019-Nov-08 10:46:28  

Additional Information
 Earth MOID = 1.04384 au 
 Jupiter MOID = 1.55765 au 
 T_jup = 3.265 
[ show covariance matrix ]

Ephemeris | Orbit Diagram | Orbital Elements | Mission Design | Physical Parameters | Discovery Circumstances | Close-Approach Data ]

Physical Parameter Table
Parameter Symbol Value Units Sigma Reference Notes
absolute magnitude H 16.6   n/a MPO440578  

351201 (2004 FR61)          Discovered 2004-Mar-19 by LINEAR at Socorro
Reference: 20130127/Numbers.arcLast Updated: 2013-01-31

[ show close-approach data ]
Ephemeris | Orbit Diagram | Orbital Elements | Mission Design | Physical Parameters | Discovery Circumstances | Close-Approach Data ]
ABOUT SSD CREDITS/AWARDS PRIVACY/COPYRIGHT GLOSSARY LINKS
FirstGov
(server date/time)  
NASA Home Page
Site Manager:   Ryan S. Park
Webmaster  Alan B. Chamberlin